TimeCDT,TemperatureF,Dew PointF,Humidity,Sea Level PressureIn,VisibilityMPH,Wind Direction,Wind SpeedMPH,Gust SpeedMPH,PrecipitationIn,Events,Conditions,WindDirDegrees,DateUTC
12:52 AM,75.0,71.1,87,29.88,10.0,Calm,Calm,-,N/A,,Clear,0,2012-09-04 05:52:00
1:52 AM,73.9,71.1,91,29.88,9.0,Calm,Calm,-,N/A,,Mostly Cloudy,0,2012-09-04 06:52:00
2:52 AM,73.0,71.1,93,29.88,9.0,Calm,Calm,-,N/A,,Scattered Clouds,0,2012-09-04 07:52:00
3:52 AM,73.0,71.1,93,29.87,9.0,Calm,Calm,-,N/A,,Partly Cloudy,0,2012-09-04 08:52:00
4:52 AM,72.0,71.1,97,29.87,8.0,Calm,Calm,-,N/A,,Partly Cloudy,0,2012-09-04 09:52:00
5:52 AM,71.1,70.0,96,29.87,7.0,Calm,Calm,-,N/A,,Partly Cloudy,0,2012-09-04 10:52:00
6:52 AM,72.0,71.1,97,29.89,5.0,Calm,Calm,-,N/A,,Clear,0,2012-09-04 11:52:00
7:52 AM,73.9,72.0,93,29.89,7.0,Calm,Calm,-,N/A,,Clear,0,2012-09-04 12:52:00
8:52 AM,77.0,72.0,84,29.89,7.0,Calm,Calm,-,N/A,,Mostly Cloudy,0,2012-09-04 13:52:00
9:52 AM,82.4,73.4,74,29.90,10.0,Calm,Calm,-,N/A,,Clear,0,2012-09-04 14:52:00
10:52 AM,86.0,72.0,63,29.88,10.0,SE,3.5,-,N/A,,Clear,130,2012-09-04 15:52:00
11:52 AM,86.0,71.1,61,29.87,10.0,Calm,Calm,-,N/A,,Clear,0,2012-09-04 16:52:00
12:52 PM,89.1,71.1,55,29.84,10.0,Calm,Calm,-,N/A,,Scattered Clouds,0,2012-09-04 17:52:00
1:52 PM,88.0,72.0,59,29.83,10.0,SSW,5.8,-,N/A,,Scattered Clouds,210,2012-09-04 18:52:00
2:52 PM,91.4,69.8,49,29.83,10.0,SW,5.8,-,N/A,,Partly Cloudy,220,2012-09-04 19:52:00
3:52 PM,91.0,69.1,48,29.81,10.0,SSW,5.8,-,N/A,,Scattered Clouds,210,2012-09-04 20:52:00
4:52 PM,91.0,71.1,52,29.80,10.0,Calm,Calm,-,N/A,,Partly Cloudy,0,2012-09-04 21:52:00
5:52 PM,90.0,70.0,52,29.79,10.0,SW,5.8,-,N/A,,Clear,230,2012-09-04 22:52:00
6:52 PM,86.0,71.1,61,29.78,10.0,SW,3.5,-,N/A,,Clear,230,2012-09-04 23:52:00
7:52 PM,81.0,72.0,74,29.78,10.0,Calm,Calm,-,N/A,,Clear,0,2012-09-05 00:52:00
8:52 PM,78.1,72.0,81,29.80,10.0,East,4.6,-,N/A,,Clear,80,2012-09-05 01:52:00
9:52 PM,79.0,70.0,74,29.80,10.0,SE,3.5,-,N/A,,Clear,130,2012-09-05 02:52:00
10:52 PM,77.0,70.0,79,29.82,10.0,NE,6.9,-,N/A,,Clear,50,2012-09-05 03:52:00
11:52 PM,73.0,57.0,57,29.86,10.0,ENE,21.9,26.5,N/A,,Partly Cloudy,60,2012-09-05 04:52:00